DW0231 Weather Reports


Display with metric or nautical units.
time (UTC)temp
F
wind
direction
speed
MPH
gust
MPH
rain 1hr
in
rain 24hr
in
rain mn
in
humidity
%
barometer
mb
20260901171630 67 225 1.0 0.0 0.00 0.00 0.00 65 1011.3
20260901170046 66 225 0.0 0.0 0.00 0.00 0.00 68 1011.3
20260901164510 65 225 0.0 0.0 0.00 0.00 0.00 73 1011.3
20260901163113 64 225 0.0 0.0 0.00 0.00 0.00 78 1011.3
20260901161505 61 225 0.0 0.0 0.00 0.00 0.00 83 1011.4
20260901160121 60 225 1.0 0.0 0.00 0.00 0.00 84 1011.4
20260901154601 59 225 0.0 0.0 0.00 0.00 0.00 85 1011.5
20260901153005 57 225 0.0 0.0 0.00 0.00 0.00 85 1011.7
20260901151622 56 225 0.0 0.0 0.00 0.00 0.00 85 1011.8
20260901150015 56 225 0.0 0.0 0.00 0.00 0.00 85 1011.8
20260901144502 55 225 0.0 0.0 0.00 0.00 0.00 85 1011.8
20260901143102 55 225 0.0 0.0 0.00 0.00 0.00 85 1011.9
20260901141532 55 225 0.0 0.0 0.00 0.00 0.00 85 1011.7
20260901140133 55 225 0.0 0.0 0.00 0.00 0.00 85 1011.4
20260901134629 54 225 0.0 0.0 0.00 0.00 0.00 85 1011.5
20260901133055 54 225 0.0 0.0 0.00 0.00 0.00 85 1011.3
20260901131506 54 225 0.0 0.0 0.00 0.00 0.00 85 1011.2
20260901130115 54 225 0.0 0.0 0.00 0.00 0.00 85 1010.9
20260901124531 54 225 0.0 0.0 0.00 0.00 0.00 85 1010.9
20260901123128 54 225 0.0 0.0 0.00 0.00 0.00 85 1010.9
20260901121608 54 225 0.0 0.0 0.00 0.00 0.00 85 1011.0
20260901120024 54 225 0.0 0.0 0.00 0.00 0.00 84 1010.9
20260901114509 54 225 0.0 0.0 0.00 0.00 0.00 84 1010.8
20260901113032 54 225 0.0 0.0 0.00 0.00 0.00 84 1010.5
20260901111509 54 225 0.0 0.0 0.00 0.00 0.00 84 1010.6
20260901110132 54 225 0.0 0.0 0.00 0.00 0.00 84 1010.7
20260901104604 55 225 0.0 0.0 0.00 0.00 0.00 83 1010.8
20260901103005 55 225 0.0 0.0 0.00 0.00 0.00 82 1010.8
20260901101634 56 225 0.0 0.0 0.00 0.00 0.00 82 1010.8
20260901100105 56 225 0.0 0.0 0.00 0.00 0.00 82 1010.9
20260901094542 57 225 0.0 0.0 0.00 0.00 0.00 81 1010.9
20260901093007 57 225 0.0 0.0 0.00 0.00 0.00 81 1010.8
20260901091512 57 225 0.0 0.0 0.00 0.00 0.00 81 1010.8
20260901090109 58 225 0.0 0.0 0.00 0.00 0.00 80 1010.8
20260901084510 59 225 0.0 0.0 0.00 0.00 0.00 80 1010.8
20260901083048 59 225 0.0 0.0 0.00 0.00 0.00 79 1010.9
20260901081505 59 225 0.0 0.0 0.00 0.00 0.00 79 1011.1
20260901080112 60 225 0.0 0.0 0.00 0.00 0.00 79 1011.1
20260901074530 60 225 0.0 0.0 0.00 0.00 0.00 79 1011.4
20260901073129 60 225 0.0 0.0 0.00 0.00 0.00 79 1011.2
20260901071625 60 225 0.0 0.0 0.00 0.00 0.00 78 1011.1
20260901070035 60 225 0.0 0.0 0.00 0.00 0.06 78 1011.3
20260901064507 60 225 1.0 0.0 0.00 0.00 0.06 78 1011.4
20260901063123 60 225 0.0 0.0 0.00 0.00 0.06 77 1011.4
20260901061531 60 225 0.0 0.0 0.00 0.00 0.06 77 1011.1
20260901060011 60 225 0.0 0.0 0.00 0.00 0.06 77 1010.8
20260901054637 60 225 0.0 0.0 0.00 0.00 0.06 78 1011.4
20260901053052 61 225 0.0 0.0 0.00 0.00 0.06 77 1011.7
20260901051506 61 225 0.0 0.0 0.00 0.00 0.06 77 1011.5
20260901050127 60 225 0.0 0.0 0.00 0.00 0.06 77 1011.7
20260901044544 60 225 1.0 0.0 0.00 0.00 0.06 79 1011.8
20260901043024 59 225 1.0 0.0 0.00 0.00 0.06 80 1012.0
20260901041513 59 216 1.0 0.0 0.00 0.00 0.06 80 1012.0
20260901034505 60 216 0.0 0.0 0.00 0.00 0.06 79 1011.9
20260901033135 60 215 0.0 0.0 0.00 0.00 0.06 78 1012.0
20260901031614 61 216 0.0 0.0 0.00 0.00 0.06 77 1011.6
20260901030023 61 216 0.0 0.0 0.00 0.00 0.06 76 1011.4
20260901024508 61 215 0.0 0.0 0.00 0.00 0.06 75 1011.0
20260901023132 61 216 1.0 0.0 0.00 0.00 0.06 75 1010.8
20260901021604 61 209 0.0 0.0 0.00 0.00 0.06 75 1011.2
20260901020011 62 209 0.0 0.0 0.00 0.00 0.06 73 1011.6
20260901014634 62 209 1.0 0.0 0.00 0.00 0.06 73 1011.7
20260901013117 62 202 0.0 0.0 0.00 0.00 0.06 72 1011.5
20260901011518 62 202 2.0 0.0 0.00 0.00 0.06 71 1012.1
20260901010132 62 186 1.0 0.0 0.00 0.00 0.06 73 1012.5
20260901004617 62 187 2.0 0.0 0.00 0.00 0.06 73 1012.5
20260901003032 62 209 2.0 0.0 0.00 0.00 0.05 74 1012.5
20260901001504 63 191 1.0 0.0 0.00 0.00 0.05 75 1012.2
20260901000108 62 207 3.0 0.0 0.00 0.00 0.05 73 1012.2
20260831234502 63 210 4.0 0.0 0.00 0.00 0.05 71 1012.1
20260831233115 67 200 5.0 0.0 0.00 0.00 0.03 63 1011.4
20260831231508 71 181 10.0 0.0 0.00 0.00 0.00 47 1010.0
20260831230115 77 258 3.0 0.0 0.00 0.00 0.00 42 1008.6
20260831224510 79 194 1.0 0.0 0.00 0.00 0.00 46 1007.4
20260831223134 80 194 1.0 0.0 0.00 0.00 0.00 39 1007.1
20260831221537 81 194 2.0 0.0 0.00 0.00 0.00 33 1007.0
20260831220025 82 153 2.0 0.0 0.00 0.00 0.00 33 1006.9
20260831214502 83 129 3.0 0.0 0.00 0.00 0.00 33 1007.0
20260831213055 83 209 4.0 0.0 0.00 0.00 0.00 32 1007.4
20260831211524 84 202 3.0 0.0 0.00 0.00 0.00 32 1007.3
20260831210136 84 201 3.0 0.0 0.00 0.00 0.00 34 1007.5
20260831204610 83 201 4.0 0.0 0.00 0.00 0.00 32 1008.0
20260831203110 84 200 3.0 0.0 0.00 0.00 0.00 31 1008.0
20260831201521 84 186 2.0 0.0 0.00 0.00 0.00 31 1008.1
20260831200129 83 210 2.0 0.0 0.00 0.00 0.00 35 1008.3
20260831194639 82 233 1.0 0.0 0.00 0.00 0.00 38 1008.3
20260831193034 81 234 1.0 0.0 0.00 0.00 0.00 40 1009.0
20260831191509 80 234 0.0 0.0 0.00 0.00 0.00 43 1009.3
20260831190130 79 233 0.0 0.0 0.00 0.00 0.00 47 1009.5
20260831184539 79 233 1.0 0.0 0.00 0.00 0.00 41 1009.7
20260831183017 80 234 0.0 0.0 0.00 0.00 0.00 40 1010.1
20260831181619 78 233 0.0 0.0 0.00 0.00 0.00 41 1010.4
20260831180014 77 233 0.0 0.0 0.00 0.00 0.00 41 1010.6
20260831174648 76 234 1.0 0.0 0.00 0.00 0.00 40 1010.9
20260831173057 75 234 0.0 0.0 0.00 0.00 0.00 42 1011.0